TimeCDT,TemperatureF,Dew PointF,Humidity,Sea Level PressureIn,VisibilityMPH,Wind Direction,Wind SpeedMPH,Gust SpeedMPH,PrecipitationIn,Events,Conditions,WindDirDegrees,DateUTC
12:53 AM,59.0,39.0,48,29.99,10.0,SSW,8.1,-,N/A,,Clear,200,2013-04-07 05:53:00
1:53 AM,57.0,39.0,51,29.98,10.0,South,6.9,-,N/A,,Clear,180,2013-04-07 06:53:00
2:53 AM,57.9,39.0,49,29.97,10.0,South,9.2,-,N/A,,Clear,190,2013-04-07 07:53:00
3:53 AM,57.9,39.0,49,29.97,10.0,SSW,9.2,-,N/A,,Clear,200,2013-04-07 08:53:00
4:53 AM,57.0,39.0,51,29.97,10.0,South,9.2,-,N/A,,Clear,190,2013-04-07 09:53:00
5:53 AM,57.9,39.9,51,29.98,10.0,South,12.7,-,N/A,,Clear,190,2013-04-07 10:53:00
6:53 AM,59.0,41.0,51,30.00,10.0,SSW,12.7,-,N/A,,Overcast,200,2013-04-07 11:53:00
7:53 AM,61.0,43.0,52,30.02,10.0,SSW,10.4,-,N/A,,Overcast,210,2013-04-07 12:53:00
8:53 AM,62.1,46.0,56,30.03,10.0,SSW,13.8,-,N/A,,Overcast,200,2013-04-07 13:53:00
9:53 AM,64.0,46.9,54,30.04,10.0,SSW,16.1,-,N/A,,Overcast,200,2013-04-07 14:53:00
10:53 AM,68.0,50.0,52,30.04,10.0,SSW,16.1,20.7,N/A,,Overcast,200,2013-04-07 15:53:00
11:53 AM,71.1,48.0,44,30.03,10.0,SW,18.4,27.6,N/A,,Overcast,230,2013-04-07 16:53:00
12:53 PM,72.0,48.0,43,30.01,10.0,SW,15.0,23.0,N/A,,Overcast,220,2013-04-07 17:53:00
1:53 PM,73.0,48.0,41,30.00,10.0,SW,10.4,21.9,N/A,,Overcast,230,2013-04-07 18:53:00
2:53 PM,75.9,46.9,36,29.99,10.0,SW,13.8,18.4,N/A,,Partly Cloudy,220,2013-04-07 19:53:00
3:53 PM,75.0,46.0,36,29.98,10.0,SSW,11.5,-,N/A,,Overcast,210,2013-04-07 20:53:00
4:53 PM,73.9,44.1,34,29.98,10.0,SSW,12.7,-,N/A,,Mostly Cloudy,200,2013-04-07 21:53:00
5:53 PM,72.0,45.0,38,29.97,10.0,South,13.8,-,N/A,,Mostly Cloudy,180,2013-04-07 22:53:00
6:53 PM,71.1,44.1,38,29.97,10.0,South,9.2,-,N/A,,Overcast,170,2013-04-07 23:53:00
7:53 PM,69.1,46.0,44,29.97,10.0,South,10.4,-,N/A,,Mostly Cloudy,180,2013-04-08 00:53:00
8:53 PM,66.9,46.0,47,29.99,10.0,South,9.2,-,N/A,,Clear,180,2013-04-08 01:53:00
9:53 PM,66.0,45.0,47,29.99,10.0,South,10.4,-,N/A,,Clear,190,2013-04-08 02:53:00
10:53 PM,63.0,46.0,54,29.98,10.0,South,8.1,-,N/A,,Clear,190,2013-04-08 03:53:00
11:53 PM,61.0,46.0,58,29.98,10.0,South,5.8,-,N/A,,Clear,180,2013-04-08 04:53:00